Home > Weather > Zwolle > Past weeks

Flag for Netherlands Weather for the Past 2 Weeks in Zwolle, Netherlands

Now
50 °F

Passing clouds.


Feels Like: 43 °F
Forecast: 42 / 50 °F
Wind: 23 mph from Southwest

Location: Amsterdam Schiphol Airport

Current Time: Apr 29, 2016 at 2:08:10 PM

Latest Report: Apr 29, 2016 at 1:25 PM


Visibility: N/A

Pressure: 29.83 "Hg

Humidity: 58%

Dew Point: 36 °F

Location of ZwolleLocation

Historic Weather in Zwolle — Graph

°F

Zwolle Temperature Yesterday

Maximum temperature yesterday: 48 °F (at 6:25 PM)
Minimum temperature yesterday: 34 °F (at 5:25 AM)
Average temperature yesterday: 42 °F

High & Low Weather Summary for the Past Weeks

 TemperatureHumidityPressure
High61 °F (Apr 14, 2:25 PM)100% (Apr 28, 5:25 AM)30.48 "Hg (Apr 28, 5:25 AM)
Low34 °F (Apr 25, 3:25 AM)41% (Apr 21, 4:55 PM)29.36 "Hg (Apr 16, 3:25 AM)
Average46 °F75%29.92 "Hg
* Reported Apr 14 12:25 PM — Apr 29 12:55 PM, Zwolle, Weather by CustomWeather, © 2016

Note: Actual official high and low records may vary slightly from our data, if they occured in-between our weather recording intervals... More about our weather records

Advertising

Zwolle Weather History for the Previous 24 Hours

Scroll right to see more
 ConditionsComfort  
Time TempWeatherWind HumidityBarometerVisibility
12:55 PM
Fri, Apr 29
50 °FPassing clouds.24 mph62%29.83 "HgN/A
12:25 PM50 °FPassing clouds.18 mph67%29.83 "HgN/A
11:55 AM48 °FScattered clouds.16 mph76%29.83 "HgN/A
11:25 AM45 °FSprinkles. Partly sunny.10 mph87%29.83 "HgN/A
10:55 AM45 °FSprinkles. Partly sunny.18 mph87%29.83 "HgN/A
10:25 AM45 °FLight rain. Partly sunny.13 mph87%29.80 "HgN/A
9:55 AM43 °FLight rain. Passing clouds.14 mph87%29.80 "HgN/A
9:25 AM43 °FLight rain. Passing clouds.12 mph87%29.80 "HgN/A
8:55 AM41 °FLight rain. Partly sunny.10 mph87%29.80 "HgN/A
8:25 AM41 °FDrizzle. More clouds than sun.17 mph87%29.80 "Hg4 mi
7:55 AM43 °FLight rain. More clouds than sun.13 mph87%29.80 "Hg4 mi
7:25 AM43 °FLight rain. Broken clouds.15 mph87%29.80 "HgN/A
6:55 AM43 °FPassing clouds.15 mph87%29.77 "HgN/A
6:25 AM43 °FPartly cloudy.15 mph87%29.77 "Hg4 mi
5:55 AM45 °FPassing clouds.18 mph76%29.77 "HgN/A
5:25 AM43 °FPassing clouds.18 mph81%29.77 "HgN/A
3:25 AM43 °FClear.18 mph71%29.80 "Hg10 mi
2:55 AM41 °FClear.16 mph76%29.83 "Hg10 mi
2:25 AM41 °FClear.15 mph81%29.83 "Hg10 mi
1:55 AM41 °FPassing clouds.16 mph76%29.86 "HgN/A
1:25 AM41 °FClear.15 mph76%29.86 "Hg10 mi
12:55 AM41 °FClear.12 mph66%29.89 "Hg10 mi
12:25 AM41 °FClear.14 mph66%29.89 "Hg10 mi
11:55 PM
Thu, Apr 28
41 °FClear.13 mph70%29.89 "Hg10 mi
11:25 PM39 °FClear.9 mph75%29.89 "Hg10 mi
10:55 PM41 °FClear.8 mph70%29.92 "Hg10 mi
10:25 PM39 °FClear.7 mph70%29.92 "Hg10 mi
9:55 PM41 °FSunny.8 mph66%29.92 "Hg10 mi
9:25 PM41 °FPassing clouds.8 mph66%29.92 "HgN/A
8:55 PM41 °FSunny.8 mph66%29.92 "Hg10 mi
8:25 PM43 °FPassing clouds.8 mph66%29.92 "HgN/A
7:55 PM45 °FPassing clouds.10 mph61%29.95 "HgN/A
7:25 PM45 °FPassing clouds.12 mph57%29.95 "HgN/A
6:55 PM46 °FPassing clouds.10 mph53%29.95 "HgN/A
6:25 PM48 °FPassing clouds.12 mph58%29.95 "HgN/A
5:55 PM45 °FPassing clouds.13 mph61%29.95 "HgN/A
5:25 PM45 °FPassing clouds.13 mph71%29.95 "HgN/A
4:55 PM46 °FPassing clouds.14 mph66%29.95 "HgN/A
4:25 PM46 °FPassing clouds.15 mph62%29.95 "HgN/A
3:55 PM46 °FPassing clouds.14 mph71%29.95 "HgN/A
3:25 PM45 °FScattered clouds.14 mph76%29.95 "HgN/A
2:55 PM46 °FBroken clouds.16 mph76%29.95 "HgN/A
2:25 PM45 °FScattered clouds.13 mph81%29.92 "HgN/A
Weather by CustomWeather, © 2016

See weather overviewHow to use our weather pages